[[{"header":{"parameterUnit":"m.s-1","parameterCategory":1,"la1":30.2991,"la2":30.254,"lo1":-89.0895,"lo2":-89.0444,"dy":0.0017,"dx":0.0017,"nx":28,"ny":28,"refTime":"2025-12-18T03:00:00:Z","depth":0,"parameterNumber":2,"parameterNumberName":"U-component_of_WINDS"},"data":[0,0,0,0,0,0,0,0,0,0,0,0,0,0,0,0,0,0,0,0,0,0,0,0,0,0,0,0,0,0,0,0,0,0,0,0,0,0,0,0,0,0,0,0,0,0,0,0,0,0,0,0,0,0,0,0,0,0,0.1653,0.1653,0,0.1662,0.1662,0.1662,0.1685,0.1685,0.1686,0.1686,0.1694,0.1694,0.1693,0,0,0,0,0,0,0,0,0,0,0,0,0,0.1654,0.1654,0.1653,0.1653,0.1653,0.1662,0.1662,0.1662,0.1685,0.1685,0.1686,0.1687,0.1694,0.1694,0.1693,0,0,0,0,0,0,0,0,0,0,0,0,0,0.1657,0.1654,0.1653,0.1665,0.1667,0.1662,0.1662,0.1662,0.1685,0.1685,0.1686,0.1687,0.1694,0.1694,0.1693,0.1676,0,0,0.1692,0.1692,0,0,0,0,0,0,0,0,0.1657,0.1657,0.1663,0.1664,0.1666,0.1673,0.1665,0.1667,0.1684,0.1678,0.1686,0.1687,0.1686,0.1686,0.1686,0.1676,0.1677,0.1692,0.1692,0.1692,0.1691,0,0,0,0,0,0,0,0.1657,0.1657,0.1656,0.1663,0.1665,0.167,0.1672,0.1665,0.1678,0.1678,0.168,0.1681,0.1687,0.1687,0.1687,0.1677,0.1692,0.1692,0.1691,0.1691,0.1654,0.1653,0,0,0,0,0,0,0.1655,0.1656,0.1656,0.1656,0.1663,0.167,0.1671,0.167,0.1678,0.168,0.168,0.1682,0.1687,0.1687,0.1687,0.1668,0.1692,0.1691,0.1691,0.1655,0.1654,0.1653,0,0,0,0,0,0,0.1655,0.1654,0.1656,0.1657,0.1657,0.1669,0.1667,0.167,0.167,0.1679,0.1681,0.1678,0.1688,0.1688,0.1679,0.1668,0.1691,0.1691,0.1655,0.1654,0.1653,0.1628,0,0,0,0,0,0,0.1655,0.1654,0.1648,0.1657,0.1657,0.1647,0.1667,0.1669,0.1669,0.1671,0.1678,0.1679,0.1688,0.1679,0.1679,0.1668,0.169,0.1656,0.1655,0.1654,0.163,0.1626,0.1623,0,0,0,0,0,0.1655,0.164,0.1648,0.1647,0.165,0.1647,0.1647,0.1658,0.1668,0.1662,0.1668,0.1679,0.167,0.1678,0.1678,0.1667,0.1657,0.1655,0.1654,0.1632,0.1627,0.1623,0,0,0,0,0,0,0.1629,0.1641,0.165,0.1638,0.1641,0.1651,0.1643,0.1653,0.1653,0.1655,0.1668,0.1669,0.1659,0.1662,0.1671,0.1651,0.1665,0.1663,0.1649,0.1645,0.1641,0.164,0.169,0,0,0,0,0,0.1622,0.1619,0.163,0.1618,0.162,0.1631,0.163,0.1638,0.1642,0.1643,0.1649,0.1652,0.1649,0.1647,0.1646,0.1631,0.1633,0.1624,0.162,0.1617,0.1615,0.1608,0.1604,0.1647,0.1647,0.1647,0,0,0.1608,0.1614,0.1611,0.1613,0.1617,0.1613,0.1632,0.1627,0.1624,0.1642,0.1634,0.1639,0.1643,0.1631,0.1626,0.1633,0.1604,0.1615,0.1613,0.1612,0.1605,0.1601,0.1598,0.1646,0.1646,0.1646,0,0,0.1579,0.1584,0.1575,0.1578,0.1584,0.1591,0.1589,0.1597,0.1601,0.1594,0.1608,0.1605,0.16,0.1603,0.1603,0.1577,0.1587,0.1576,0.1558,0.155,0.1547,0.1544,0.1534,0.153,0.1574,0.1574,0.1574,0,0.156,0.1555,0.1568,0.1563,0.1563,0.1581,0.1572,0.1574,0.1579,0.1578,0.1587,0.1583,0.1587,0.1576,0.1569,0.1569,0.1567,0.1574,0.1546,0.1543,0.1541,0.1531,0.1528,0.1572,0.1573,0.1573,0.1573,0,0.1531,0.1527,0.1519,0.1524,0.1524,0.1516,0.1528,0.1527,0.1536,0.1542,0.1535,0.154,0.154,0.1539,0.1547,0.1529,0.1533,0.1544,0.1558,0.1535,0.1526,0.1523,0.157,0.1571,0.1571,0.1572,0,0,0.1484,0.1498,0.1494,0.1497,0.1505,0.1502,0.1496,0.1497,0.1495,0.1498,0.1492,0.1489,0.1499,0.15,0.1509,0.1502,0.1481,0.1514,0.1514,0.1507,0.1461,0.1452,0.1447,0.1488,0.1487,0.1487,0.146,0,0.1457,0.1446,0.1459,0.1446,0.1443,0.1461,0.1455,0.1459,0.1466,0.1464,0.1471,0.1468,0.1482,0.1483,0.1478,0.1484,0.1471,0.1487,0.1482,0.1482,0.1479,0.1443,0.1433,0.1408,0.1457,0.1456,0.1456,0,0.1422,0.1424,0.1411,0.1421,0.142,0.1414,0.1417,0.1415,0.142,0.1425,0.1427,0.1438,0.1432,0.1448,0.1439,0.1449,0.1449,0.1452,0.1451,0.145,0.1466,0.144,0.14,0.1396,0.1451,0.1451,0.1452,0,0.1389,0.1388,0.1381,0.1382,0.1393,0.1389,0.1394,0.14,0.14,0.1402,0.1402,0.1403,0.1403,0.1403,0.1414,0.1425,0.1405,0.1421,0.1408,0.1408,0.1402,0.1402,0.136,0.1403,0.1403,0.1403,0.1404,0,0.1356,0.1347,0.1366,0.1361,0.1351,0.1366,0.1356,0.1363,0.1368,0.1364,0.138,0.1376,0.1392,0.139,0.1398,0.139,0.139,0.1394,0.1396,0.1392,0.1391,0.139,0.1392,0.1402,0.1403,0.1403,0.1403,0,0.1316,0.1328,0.1321,0.1333,0.1335,0.1328,0.1338,0.1333,0.1342,0.1337,0.1337,0.1349,0.1348,0.136,0.136,0.1366,0.1353,0.1358,0.1351,0.1352,0.1338,0.1339,0.1294,0.1288,0.1336,0.1336,0.1335,0,0.1293,0.1287,0.1298,0.1297,0.1301,0.1299,0.13,0.1315,0.1314,0.1321,0.1315,0.1315,0.1316,0.1312,0.1321,0.1321,0.1327,0.1311,0.1327,0.1323,0.1325,0.1325,0.1324,0.1307,0.1306,0.1306,0.1305,0,0.1251,0.1258,0.1258,0.1261,0.1261,0.1264,0.1267,0.1265,0.1282,0.1281,0.1279,0.128,0.1281,0.128,0.1283,0.1287,0.1298,0.1301,0.1298,0.1292,0.1288,0.1289,0.134,0.1301,0.1302,0.1302,0.1302,0.1302,0.1219,0.1214,0.1222,0.1221,0.1226,0.1229,0.1226,0.1234,0.1234,0.1236,0.1245,0.1242,0.1249,0.1253,0.1257,0.1254,0.1262,0.1258,0.1256,0.1255,0.1252,0.1289,0.1255,0.1255,0.1255,0.1255,0.1256,0,0.1177,0.1183,0.1183,0.1188,0.1188,0.12,0.1205,0.1204,0.1202,0.1207,0.1207,0.1206,0.1206,0.1216,0.1217,0.1213,0.1219,0.1213,0.1212,0.1213,0.1245,0.1248,0.1208,0.1208,0.1208,0.1208,0.1208,0.1208,0.1155,0.1148,0.1156,0.1151,0.1157,0.1155,0.1156,0.1159,0.1164,0.1162,0.1162,0.1169,0.1176,0.1178,0.1178,0.1181,0.118,0.1172,0.1177,0.1206,0.1211,0.1215,0.1217,0.1172,0.1172,0.1145,0.1145,0.1144]},{"header":{"parameterUnit":"m.s-1","parameterCategory":1,"la1":30.2991,"la2":30.254,"lo1":-89.0895,"lo2":-89.0444,"dy":0.0017,"dx":0.0017,"nx":28,"ny":28,"refTime":"2025-12-18T03:00:00:Z","depth":0,"parameterNumber":3,"parameterNumberName":"V-component_of_WINDS"},"data":[0,0,0,0,0,0,0,0,0,0,0,0,0,0,0,0,0,0,0,0,0,0,0,0,0,0,0,0,0,0,0,0,0,0,0,0,0,0,0,0,0,0,0,0,0,0,0,0,0,0,0,0,0,0,0,0,0,0,-5.7236,-5.7237,0,-5.7289,-5.729,-5.729,-5.7212,-5.7209,-5.7207,-5.7204,-5.7255,-5.7259,-5.7263,0,0,0,0,0,0,0,0,0,0,0,0,0,-5.7065,-5.7068,-5.7236,-5.7237,-5.7237,-5.7289,-5.729,-5.7291,-5.7213,-5.7209,-5.7206,-5.7203,-5.7254,-5.7258,-5.7263,0,0,0,0,0,0,0,0,0,0,0,0,0,-5.7131,-5.7069,-5.7236,-5.7205,-5.7203,-5.7289,-5.729,-5.7291,-5.7213,-5.7209,-5.7205,-5.7201,-5.7252,-5.7258,-5.7264,-5.7382,0,0,-5.7281,-5.7284,0,0,0,0,0,0,0,0,-5.7127,-5.7137,-5.7209,-5.7207,-5.7205,-5.724,-5.7248,-5.7321,-5.7214,-5.7209,-5.7204,-5.7199,-5.7253,-5.7259,-5.7277,-5.7384,-5.7386,-5.7282,-5.7286,-5.7288,-5.729,0,0,0,0,0,0,0,-5.7122,-5.7134,-5.7257,-5.721,-5.7208,-5.7187,-5.7192,-5.7262,-5.7253,-5.7209,-5.7204,-5.7211,-5.7251,-5.7272,-5.7278,-5.7387,-5.7282,-5.7287,-5.7291,-5.7293,-5.7596,-5.76,0,0,0,0,0,0,-5.7122,-5.7131,-5.7255,-5.7259,-5.7155,-5.7194,-5.7199,-5.7233,-5.7252,-5.7251,-5.7215,-5.7207,-5.7264,-5.7271,-5.728,-5.7421,-5.7288,-5.7294,-5.7297,-5.7591,-5.7597,-5.7602,0,0,0,0,0,0,-5.7119,-5.7134,-5.7253,-5.7193,-5.7207,-5.7201,-5.7239,-5.7236,-5.7257,-5.7257,-5.7254,-5.7238,-5.7261,-5.7271,-5.7358,-5.7422,-5.7296,-5.7302,-5.7586,-5.7593,-5.7599,-5.7704,0,0,0,0,0,0,-5.7114,-5.7133,-5.7179,-5.7195,-5.7211,-5.7332,-5.7243,-5.724,-5.7268,-5.7258,-5.7278,-5.7277,-5.7259,-5.7349,-5.7364,-5.7427,-5.7306,-5.758,-5.7589,-5.7597,-5.7695,-5.7714,-5.773,0,0,0,0,0,-5.7108,-5.7205,-5.7181,-5.7197,-5.7267,-5.7335,-5.7344,-5.7322,-5.7273,-5.7318,-5.7319,-5.7276,-5.7412,-5.7359,-5.7374,-5.7441,-5.7576,-5.7586,-5.7596,-5.7687,-5.771,-5.7729,0,0,0,0,0,0,-5.7194,-5.7206,-5.718,-5.7285,-5.731,-5.7322,-5.7379,-5.7347,-5.7385,-5.7375,-5.7345,-5.735,-5.7443,-5.745,-5.7391,-5.7557,-5.7486,-5.7499,-5.755,-5.7571,-5.7588,-5.7585,-5.7311,0,0,0,0,0,-5.7226,-5.7281,-5.7288,-5.738,-5.7394,-5.7385,-5.7413,-5.7395,-5.7418,-5.7428,-5.7434,-5.7459,-5.7507,-5.7539,-5.7583,-5.7695,-5.7699,-5.7748,-5.7766,-5.778,-5.7793,-5.7854,-5.7877,-5.7635,-5.7635,-5.7635,0,0,-5.7291,-5.7304,-5.7341,-5.7398,-5.7415,-5.7472,-5.7394,-5.7457,-5.75,-5.7437,-5.752,-5.7526,-5.7551,-5.7651,-5.7696,-5.766,-5.786,-5.7793,-5.7804,-5.7809,-5.7867,-5.789,-5.791,-5.7642,-5.7641,-5.764,0,0,-5.7439,-5.7455,-5.7534,-5.7553,-5.7581,-5.7574,-5.7593,-5.7611,-5.7613,-5.7696,-5.7651,-5.77,-5.7783,-5.7803,-5.7824,-5.7983,-5.7946,-5.7998,-5.8089,-5.8149,-5.8168,-5.8185,-5.8243,-5.8264,-5.801,-5.801,-5.801,0,-5.7516,-5.7603,-5.7578,-5.7646,-5.7673,-5.7621,-5.7701,-5.772,-5.776,-5.778,-5.7739,-5.7844,-5.7857,-5.7962,-5.8001,-5.802,-5.8041,-5.7996,-5.8167,-5.8184,-5.8199,-5.8254,-5.8276,-5.8016,-5.8016,-5.8015,-5.8014,0,-5.7697,-5.7757,-5.7818,-5.7861,-5.7894,-5.7967,-5.7954,-5.799,-5.7969,-5.7967,-5.8052,-5.8066,-5.8113,-5.8136,-5.8115,-5.8239,-5.8217,-5.8172,-5.81,-5.8229,-5.828,-5.8301,-5.8025,-5.8023,-5.8021,-5.802,0,0,-5.7901,-5.7931,-5.7953,-5.7973,-5.8,-5.8046,-5.8117,-5.8165,-5.8197,-5.8227,-5.8286,-5.8359,-5.8319,-5.8343,-5.8323,-5.8376,-5.8503,-5.8325,-5.8325,-5.8359,-5.8642,-5.8677,-5.8702,-5.8478,-5.8482,-5.8485,-5.8641,0,-5.8051,-5.8176,-5.8157,-5.8277,-5.8334,-5.8285,-5.8348,-5.8371,-5.8371,-5.8418,-5.8416,-5.8469,-5.8411,-5.8426,-5.8476,-5.8477,-5.8559,-5.8465,-5.8533,-5.8536,-5.8531,-5.8728,-5.8764,-5.8911,-5.866,-5.8664,-5.8666,0,-5.8242,-5.8281,-5.8408,-5.8429,-5.8451,-5.8508,-5.8551,-5.8596,-5.8622,-5.8618,-5.8646,-5.8617,-5.8688,-5.8615,-5.8712,-5.8649,-5.8675,-5.868,-5.8685,-5.8692,-5.861,-5.8741,-5.8957,-5.898,-5.8697,-5.8695,-5.8692,0,-5.8381,-5.8464,-5.8552,-5.857,-5.8595,-5.8636,-5.8649,-5.867,-5.8701,-5.8737,-5.8757,-5.8801,-5.8826,-5.886,-5.8844,-5.8792,-5.8946,-5.887,-5.8945,-5.8946,-5.8981,-5.8979,-5.9205,-5.8996,-5.8995,-5.8995,-5.8994,0,-5.8551,-5.8631,-5.8615,-5.8669,-5.8757,-5.8734,-5.8822,-5.8828,-5.8848,-5.8902,-5.8861,-5.8913,-5.8888,-5.8937,-5.8925,-5.9009,-5.9019,-5.9019,-5.9015,-5.9023,-5.9024,-5.9041,-5.9031,-5.9001,-5.8999,-5.8998,-5.8997,0,-5.8721,-5.8713,-5.8806,-5.8823,-5.8829,-5.8894,-5.8908,-5.8959,-5.8955,-5.9025,-5.9039,-5.9034,-5.9091,-5.9078,-5.9139,-5.913,-5.9237,-5.9219,-5.9229,-5.9226,-5.9302,-5.9296,-5.9548,-5.9581,-5.9349,-5.9351,-5.9353,0,-5.8831,-5.8892,-5.8916,-5.8951,-5.8967,-5.9022,-5.9053,-5.9033,-5.9067,-5.9102,-5.9148,-5.9201,-5.9243,-5.9335,-5.9336,-5.9383,-5.9367,-5.9452,-5.9374,-5.9381,-5.9371,-5.9368,-5.9375,-5.9468,-5.9471,-5.9473,-5.9475,0,-5.9027,-5.9021,-5.9069,-5.9117,-5.9156,-5.9192,-5.9223,-5.9253,-5.9235,-5.9276,-5.9334,-5.9367,-5.943,-5.9484,-5.9527,-5.9538,-5.9505,-5.95,-5.952,-5.953,-5.9534,-5.9535,-5.9274,-5.9494,-5.9492,-5.9491,-5.949,-5.9489,-5.9172,-5.9224,-5.9251,-5.9306,-5.9328,-5.9359,-5.9408,-5.9413,-5.9461,-5.9513,-5.9497,-5.9564,-5.9588,-5.9643,-5.966,-5.9712,-5.9679,-5.9708,-5.9716,-5.9724,-5.9734,-5.9525,-5.9719,-5.9718,-5.9718,-5.9717,-5.9717,0,-5.9368,-5.9383,-5.9434,-5.9481,-5.9525,-5.949,-5.9524,-5.9562,-5.9622,-5.9648,-5.9691,-5.9758,-5.981,-5.9817,-5.9866,-5.9906,-5.9891,-5.9919,-5.9917,-5.9921,-5.9759,-5.9738,-5.993,-5.993,-5.993,-5.993,-5.993,-5.993,-5.9475,-5.9563,-5.9561,-5.9659,-5.9673,-5.974,-5.9762,-5.9791,-5.9812,-5.989,-5.9934,-5.9938,-5.9957,-6.0007,-6.0053,-6.0054,-6.0074,-6.0109,-6.0104,-5.9953,-5.9932,-5.9911,-5.9891,-6.0113,-6.0113,-6.0261,-6.0262,-6.0263]}]]